Flag for Gambia Weather past 2 weeks in Serekunda, Gambia

Now
66 °F

Clear.


Feels Like: 66 °F
Forecast: 66 / 88 °F
Wind: 12 mph from East

Location: Banjul / Yundum

Current Time: Jan 29, 2015 at 4:38:34 AM

Latest Report: Jan 29, 2015 at 4:00 AM


Visibility: 10 mi

Pressure: 29.89 "Hg

Humidity: 37%

Dew point: 39 °F

Location of SerekundaLocation

Historic Weather in Serekunda — Graph

°F

Serekunda temperature yesterday

Maximum temperature yesterday: 91 °F (at 4:00 PM)
Minimum temperature yesterday: 68 °F (at 1:00 AM)
Average temperature yesterday: 76 °F

Past Weeks' High & Low Weather Summary

 TemperatureHumidityPressure
High93 °F (Jan 17, 2:00 PM)88% (Jan 14, 10:00 PM)32.52 "Hg (Jan 14, 10:00 PM)
Low59 °F (Jan 25, 6:00 AM)8% (Jan 28, 1:00 PM)29.77 "Hg (Jan 25, 4:00 PM)
Average75 °F45%29.90 "Hg
* Reported Jan 14 3:00 AM — Jan 29 3:00 AM, Serekunda, Weather by CustomWeather, © 2014

Note: Actual official high and low records may vary slightly from our data, if they occured in-between our weather recording intervals... More about our weather records

Advertising

Serekunda weather history for previous 24 hours

 ConditionsComfort  
Time TempWeatherWind HumidityBarometerVisibility
3:00 AM
Jan 29
66 °FClear.7 mph35%29.89 "HgN/A
2:30 AM68 °FClear.5 mph35%29.89 "Hg10 mi
1:00 AM68 °FClear.9 mph35%29.89 "Hg10 mi
12:00 AM72 °FClear.12 mph31%29.89 "Hg10 mi
11:00 PM
Jan 28
72 °FClear.12 mph38%29.89 "Hg10 mi
10:00 PM72 °FClear.8 mph78%29.89 "Hg10 mi
9:00 PM73 °FClear.No wind53%29.89 "Hg10 mi
8:00 PM75 °FClear.No wind50%29.86 "Hg10 mi
7:00 PM84 °FSunny.No wind27%29.86 "Hg10 mi
6:00 PM88 °FSunny.No wind25%29.83 "Hg10 mi
5:00 PM90 °FSunny.7 mph14%29.83 "Hg10 mi
4:00 PM91 °FSunny.12 mph13%29.83 "Hg10 mi
3:00 PM90 °FSunny.12 mph18%29.86 "Hg10 mi
2:00 PM90 °FSunny.10 mph14%29.89 "Hg10 mi
1:00 PM86 °FSunny.12 mph8%29.89 "Hg10 mi
12:00 PM82 °FSunny.16 mph12%29.92 "Hg10 mi
11:00 AM79 °FSunny.17 mph16%29.92 "Hg10 mi
10:00 AM73 °FSunny.17 mph33%29.92 "Hg10 mi
9:00 AM72 °FSunny.13 mph29%29.92 "Hg10 mi
8:00 AM68 °FSunny.10 mph20%29.92 "Hg10 mi
7:00 AM68 °FClear.12 mph26%29.89 "Hg10 mi
6:00 AM68 °FClear.8 mph24%29.89 "Hg10 mi
5:00 AM68 °FClear.9 mph28%29.92 "Hg10 mi
4:00 AM68 °FClear.9 mph24%29.92 "Hg10 mi
Weather by CustomWeather, © 2014

See weather overviewHow to use our weather pages